User: anonymous
Location: Caltech
(34.1382°N, 118.1253°W)
Time: 09:01:34
(UTC-07:00)
Language:

Cosmos 1939 - Orbit

View from above orbital plane
View from above orbital plane
View from above satellite
View from above satellite

Ground track
Ground track

The orbit data is extracted from the following two-line orbital elements,

1 19045U 88032A   14232.78087404  .00090056  00000-0  56078-3 0  9191
2 19045 097.2115 302.2604 0003953 186.0743 322.3670 15.76669764450674
Epoch (UTC): 20 August 2014 18:44:27
Eccentricity: 0.0003953
inclination: 97.2115°
perigee height: 337 km
apogee height: 342 km
right ascension of ascending node: 302.2604°
argument of perigee: 186.0743°
revolutions per day: 15.76669764
mean anomaly at epoch: 322.3670°
orbit number at epoch: 45067

The dashed part of the orbit path shows where the satellite is in the earth's shadow,  

DLR